Погода в Пушном

Россия / Республика Карелия     64°24′02″N   34°08′38″E
темп.,
°C
ветер,
м/с
пор.,
м/с
влажн.,
%
обл.,
%
осадки,
мм/ч
давл.,
гПа
погр.,
м
25 июля, вс
вс2500:00+9з227118 0.0 101237
03:00+10зюз3770100 0.0 1012159
06:00+11зюз3879100 0.2 1012266
09:00+12з4983100 0.4 1013444
12:00+19зсз464862 0.1 10131799
15:00+18ссз3649100 0.2 10141056
18:00+17с265195 0.0 1015679
21:00+15юз2263100 0.0 101522
26 июля, пн
пн2600:00+15юз386191 0.0 1015233
03:00+14зсз3877100 0.2 1016206
06:00+13сз278676 0.3 1017221
09:00+17ссз356267 0.3 1017733
12:00+21сз3649100 0.0 10181604
15:00+22с484481 0.0 10182090
18:00+17всв446293 0.0 1019511
21:00+13вюв247649 0.0 1021156
27 июля, вт
вт2700:00+11ююв117483 0.0 102218
03:00+10ююв1170100 0.0 102211
06:00+13ююв11623 0.0 102286
09:00+18ю11487 0.0 1021612
12:00+23з13405 0.0 10201406
15:00+25сз253560 0.0 10182482
18:00+22всв124885 0.0 101793
21:00+19ю236399 0.0 101563
28 июля, ср
ср2800:00+17юз310645 0.0 1014204
03:00+15зюз39835 0.1 1012144
06:00+18зсз3117094 0.0 1010340
09:00+23зсз474696 0.0 1009699
12:00+26сз463841 0.0 10081915
15:00+21св55626 0.3 1008537
18:00+17всв46775 1.9 1007427
21:00+13всв139424 3.7 1007134
29 июля, чт
чт2900:00+11всв239619 1.1 100566
03:00+11юв23976 1.3 100381
06:00+12вюв239237 0.4 1001117
09:00+17ююв248147 0.8 998477
12:00+23юз245613 0.1 9961196
15:00+23ссв236062 1.5 994926
18:00+14всв479899 15.5 994257
21:00+12в2595100 16.1 994189